{"data":{"norad_id":59537,"epoch":"2026-05-25T01:13:25.212000Z","epoch_age_seconds":66548,"freshness":"FRESH","line1":"1 59537U 24074D   26145.05098625  .00017003  00000+0  62560-3 0  9991","line2":"2 59537  43.0009 272.2027 0000454 300.2999  59.7808 15.27600059117690","mean_motion":15.27600059,"eccentricity":4.54e-5,"inclination_deg":43.0009,"raan_deg":272.2027,"arg_perigee_deg":300.2999,"mean_anomaly_deg":59.7808,"bstar":0.0006256,"rev_number":11769,"period_min":94.265510891814,"perigee_km":482.67753771283,"apogee_km":483.30052795661,"semimajor_km":6861.1260328347,"source":"CELESTRAK","updated_at":"2026-05-25T13:38:18.978903Z"}}